Montpelier, VT

11:08 AM EDT on October 18, 2017 (GMT -0400)
Knapp State

Weather History for KMPV - February, 2013

Change the Weather History Date:

Tuesday, February 12, 2013

  Actual Average Record
Temperature  
Mean Temperature 32 °F 19 °F  
Max Temperature 35 °F 30 °F 50 °F (1999)
Min Temperature 29 °F 9 °F -25 °F (1967)
Degree Days  
Heating Degree Days 33 46  
Month to date heating degree days 609 562  
Since 1 July heating degree days 4954 5207  
Cooling Degree Days 0 0  
Month to date cooling degree days 0  
Year to date cooling degree days 0  
Moisture  
Dew Point 27 °F    
Average Humidity 81    
Maximum Humidity 92    
Minimum Humidity 69    
Precipitation  
Precipitation T in 0.07 in 0.67 in (1998)
Month to date precipitation 0.60 0.91  
Year to date precipitation 1.55 3.36  
Sea Level Pressure  
Sea Level Pressure 29.69 in    
Wind  
Wind Speed 7 mph (West)    
Max Wind Speed 21 mph    
Max Gust Speed 29 mph    
Visibility 6 miles    
Events Rain , Snow    
T = Trace of Precipitation, MM = Missing Value Source: NWS Daily Summary

Daily Weather History Graph

Daily Weather History Graph

Search for Another Location

Airport or City:

Trip Planner

Search our weather history database for the weather conditions in past years. The results will help you decide how hot, cold, wet, or windy it might be!

Date:

Astronomy

Feb. 12, 2013 Rise Set
Actual Time 6:53 AM EST 5:15 PM EST
Civil Twilight 6:23 AM EST 5:45 PM EST
Nautical Twilight 5:49 AM EST 6:19 PM EST
Astronomical Twilight 5:16 AM EST 6:53 PM EST
Moon 7:41 AM EST (2/12) 8:22 PM EST (2/12)
Length of Visible Light 11h 21m
Length of Day
10h 22m
Waxing Crescent, 7% of the Moon is Illuminated
Feb 12
Waxing Crescent
Feb 17
First Quarter
Feb 25
Full
Mar 4
Last Quarter
Mar 11
New

Hourly Weather History & Observations

Time (EST) Temp. Windchill Dew Point Humidity Pressure Visibility Wind Dir Wind Speed Gust Speed Precip Events Conditions
12:06 AM 35.6 °F - 28.4 °F 75% 29.60 in 10.0 mi Calm Calm - N/A   Overcast
12:51 AM 34.0 °F - 30.0 °F 85% 29.64 in 10.0 mi Calm Calm - N/A   Overcast
1:15 AM 33.8 °F 27.7 °F 28.4 °F 81% 29.59 in 10.0 mi SW 6.9 mph - N/A   Overcast
1:51 AM 34.0 °F 28.0 °F 27.0 °F 75% 29.64 in 10.0 mi WSW 6.9 mph - N/A   Overcast
2:42 AM 33.8 °F 27.7 °F 26.6 °F 75% 29.60 in 10.0 mi West 6.9 mph - N/A   Overcast
2:51 AM 33.1 °F 26.1 °F 27.0 °F 78% 29.64 in 10.0 mi WSW 8.1 mph - N/A   Overcast
3:06 AM 33.8 °F 29.6 °F 26.6 °F 75% 29.59 in 10.0 mi WSW 4.6 mph - N/A   Overcast
3:51 AM 33.1 °F 30.0 °F 26.1 °F 75% 29.64 in 10.0 mi SW 3.5 mph - N/A   Overcast
4:51 AM 33.1 °F 26.9 °F 26.1 °F 75% 29.63 in 7.0 mi SW 6.9 mph - 0.00 in Snow Light Snow
5:51 AM 33.1 °F 26.1 °F 26.1 °F 75% 29.62 in 9.0 mi SSW 8.1 mph 19.6 mph 0.00 in   Overcast
6:51 AM 32.0 °F 27.5 °F 26.1 °F 79% 29.63 in 10.0 mi WSW 4.6 mph - 0.00 in   Overcast
7:51 AM 33.1 °F 24.9 °F 26.1 °F 75% 29.64 in 6.0 mi SW 10.4 mph 16.1 mph 0.00 in   Haze
8:01 AM 33.8 °F 24.3 °F 26.6 °F 75% 29.60 in 2.5 mi SW 13.8 mph 21.9 mph 0.00 in Snow Light Snow
8:28 AM 33.8 °F 27.0 °F 26.6 °F 75% 29.61 in 3.0 mi West 8.1 mph - 0.00 in Snow Light Snow
8:51 AM 33.1 °F 27.7 °F 28.0 °F 82% 29.65 in 3.0 mi Variable 5.8 mph - 0.00 in Snow Light Snow
8:58 AM 33.8 °F 28.6 °F 28.4 °F 81% 29.62 in 2.0 mi West 5.8 mph - 0.00 in Snow Light Snow
9:06 AM 33.8 °F 26.4 °F 28.4 °F 81% 29.62 in 1.8 mi West 9.2 mph 18.4 mph 0.00 in Snow Light Snow
9:33 AM 33.8 °F 26.4 °F 28.4 °F 81% 29.62 in 1.2 mi West 9.2 mph 17.3 mph 0.00 in Snow Light Snow
9:51 AM 33.1 °F 24.4 °F 28.0 °F 82% 29.67 in 1.5 mi WSW 11.5 mph 18.4 mph 0.00 in Snow Light Snow
10:09 AM 33.8 °F 28.6 °F 28.4 °F 81% 29.64 in 2.5 mi Variable 5.8 mph 18.4 mph 0.00 in Snow Light Snow
10:20 AM 33.8 °F 28.6 °F 28.4 °F 81% 29.64 in 1.8 mi WSW 5.8 mph - 0.00 in Snow Light Snow
10:27 AM 33.8 °F 25.8 °F 28.4 °F 81% 29.65 in 1.2 mi West 10.4 mph 16.1 mph 0.00 in Snow Light Snow
10:51 AM 33.1 °F 24.4 °F 28.9 °F 85% 29.69 in 1.2 mi West 11.5 mph 19.6 mph 0.00 in Snow Light Snow
11:23 AM 32.0 °F 24.8 °F 28.4 °F 87% 29.66 in 1.0 mi West 8.1 mph - 0.00 in Snow Light Snow
11:48 AM 32.0 °F 25.6 °F 28.4 °F 87% 29.66 in 1.5 mi Variable 6.9 mph - 0.00 in Snow Light Snow
11:49 AM 32.0 °F 24.8 °F 28.9 °F 88% 29.70 in 1.5 mi West 8.1 mph - 0.00 in Snow Light Snow
11:52 AM 32.0 °F 25.6 °F 28.4 °F 87% 29.66 in 2.0 mi West 6.9 mph - 0.00 in Snow Light Snow
11:57 AM 33.8 °F 25.8 °F 28.4 °F 81% 29.66 in 3.0 mi WNW 10.4 mph 16.1 mph 0.00 in Snow Light Snow
12:24 PM 33.8 °F 28.6 °F 28.4 °F 81% 29.67 in 5.0 mi West 5.8 mph - 0.00 in Snow Light Snow
12:51 PM 34.0 °F 25.0 °F 26.1 °F 73% 29.71 in 10.0 mi WNW 12.7 mph 21.9 mph 0.00 in Rain Light Rain
1:51 PM 34.0 °F 26.0 °F 26.1 °F 73% 29.72 in 10.0 mi West 10.4 mph 21.9 mph 0.00 in   Overcast
2:51 PM 34.0 °F 26.6 °F 25.0 °F 70% 29.75 in 10.0 mi WNW 9.2 mph - N/A   Overcast
3:51 PM 33.1 °F 25.5 °F 26.1 °F 75% 29.77 in 4.0 mi NW 9.2 mph - 0.00 in Snow Light Snow
4:51 PM 32.0 °F 26.4 °F 27.0 °F 82% 29.77 in 10.0 mi NW 5.8 mph - 0.00 in   Overcast
5:51 PM 33.1 °F 24.9 °F 26.1 °F 75% 29.79 in 8.0 mi WNW 10.4 mph 18.4 mph 0.00 in Snow Light Snow
6:44 PM 30.2 °F 24.3 °F 26.6 °F 86% 29.75 in 7.0 mi NW 5.8 mph - 0.00 in Snow Light Snow
6:51 PM 30.9 °F 25.2 °F 28.0 °F 89% 29.80 in 7.0 mi NW 5.8 mph - 0.00 in Snow Light Snow
7:51 PM 30.9 °F 24.3 °F 24.1 °F 76% 29.84 in 10.0 mi NW 6.9 mph - N/A   Overcast
8:06 PM 30.2 °F 21.9 °F 24.8 °F 80% 29.80 in 10.0 mi WNW 9.2 mph - N/A   Overcast
8:51 PM 30.9 °F 24.3 °F 23.0 °F 72% 29.86 in 10.0 mi WNW 6.9 mph - N/A   Overcast
9:51 PM 30.9 °F 22.8 °F 23.0 °F 72% 29.87 in 6.0 mi West 9.2 mph - 0.00 in Snow Light Snow
10:34 PM 28.4 °F 23.3 °F 24.8 °F 86% 29.82 in 4.0 mi West 4.6 mph - 0.00 in Snow Light Snow
10:51 PM 28.9 °F - 24.1 °F 82% 29.86 in 3.0 mi Calm Calm - 0.00 in Snow Light Snow
11:51 PM 28.9 °F 23.9 °F 24.1 °F 82% 29.85 in 7.0 mi West 4.6 mph - 0.00 in Snow Light Snow